EUTELSAT 12 WEST B

Last updated on Fri Oct 16 2020 05:49:50 GMT+0000 (Coordinated Universal Time)

1 26927U 01042A 20289.51851406 -.00000117 00000-0 00000+0 0 9993 2 26927 1.3232 92.3746 0004875 171.0601 246.5491 0.98526288 69767
UTC large
Height (km)
Speed (km/s)
/
Latitude / Longitude
Inclination (degrees)
Orbital Period (minutes)
Azimuth
Elevation
Range (km)
Doppler Factor

Next 0 passes for location: London (51.5072 / 0.1276)

Sorry there are no passes over London.